[[{"header":{"parameterUnit":"m.s-1","parameterCategory":1,"la1":30.2992,"la2":30.254,"lo1":-89.0895,"lo2":-89.0443,"dy":0.0025,"dx":0.0025,"nx":19,"ny":19,"refTime":"2026-05-17T09:00:00:Z","depth":0,"parameterNumber":2,"parameterNumberName":"U-component_of_WINDS"},"data":[0,0,0,-4.7777,-4.7779,-4.7883,-4.7883,-4.8023,-4.8025,0,0,0,0,0,0,0,0,0,0,0,-4.7752,-4.7753,-4.7777,-4.7779,-4.7883,-4.7883,-4.8023,-4.8025,0,0,0,0,0,0,0,0,0,0,0,-4.7752,-4.7753,-4.7755,-4.778,-4.7883,-4.7883,-4.8023,-4.7941,0,0,0,0,0,0,0,0,0,0,-4.7839,-4.7823,-4.7753,-4.7755,-4.778,-4.7883,-4.7884,-4.7937,-4.7947,-4.798,0,-4.8013,0,-4.8021,-4.8035,-4.8035,0,0,0,-4.7774,-4.7816,-4.7838,-4.7755,-4.7782,-4.7883,-4.7835,-4.7942,-4.7953,-4.7992,-4.8015,-4.802,-4.8024,-4.8036,-4.8036,-4.825,-4.8251,0,0,-4.7768,-4.7774,-4.7831,-4.7845,-4.7832,-4.7832,-4.7838,-4.7949,-4.7973,-4.8016,-4.8023,-4.8026,-4.8037,-4.8038,-4.8249,-4.825,0,0,0,-4.7756,-4.777,-4.779,-4.784,-4.7858,-4.7835,-4.7842,-4.7968,-4.7974,-4.8025,-4.8028,-4.8038,-4.8039,-4.8248,-4.825,-4.8315,0,0,0,-4.7752,-4.7763,-4.7788,-4.7792,-4.7856,-4.7915,-4.786,-4.7967,-4.7979,-4.8027,-4.8038,-4.8041,-4.8246,-4.8249,-4.831,-4.8344,0,0,0,-4.7743,-4.7761,-4.7779,-4.7792,-4.7837,-4.7913,-4.7925,-4.7969,-4.7981,-4.8035,-4.8041,-4.8245,-4.8248,-4.8306,-4.8337,-4.84,0,0,0,-4.7735,-4.7836,-4.778,-4.7894,-4.7836,-4.7954,-4.7924,-4.8012,-4.8066,-4.8038,-4.8246,-4.8249,-4.8305,-4.8333,-4.8396,-4.8453,-4.8478,0,0,-4.7865,-4.7852,-4.7918,-4.7871,-4.8,-4.7938,-4.8076,-4.812,-4.812,-4.8206,-4.8211,-4.8312,-4.8337,-4.8399,-4.862,-4.864,0,0,0,-4.7961,-4.8008,-4.8041,-4.8094,-4.8132,-4.8165,-4.8188,-4.8205,-4.8278,-4.8166,-4.8353,-4.8368,-4.8404,-4.8431,-4.8447,-4.8477,-4.8263,-4.8262,-4.8262,-4.815,-4.8146,-4.8254,-4.8262,-4.8314,-4.8336,-4.8377,-4.8402,-4.8382,-4.8427,-4.8451,-4.8586,-4.8617,-4.863,-4.8661,-4.8483,-4.8483,-4.8483,-4.8484,-4.8337,-4.8402,-4.8374,-4.8469,-4.8463,-4.8542,-4.8568,-4.8551,-4.8622,-4.8567,-4.8599,-4.8536,-4.8652,-4.8679,-4.8489,-4.8488,-4.8487,-4.8487,-4.8486,-4.8458,-4.8488,-4.8508,-4.8583,-4.8642,-4.8646,-4.8716,-4.8708,-4.8701,-4.8733,-4.8757,-4.8756,-4.8751,-4.8746,-4.8746,-4.8747,-4.8747,-4.8747,-4.8748,-4.8575,-4.8595,-4.8655,-4.8704,-4.8736,-4.8778,-4.8802,-4.8833,-4.8865,-4.8854,-4.8854,-4.8827,-4.8666,-4.8623,-4.8755,-4.8753,-4.8753,-4.8752,-4.8751,-4.8762,-4.8718,-4.8812,-4.8844,-4.8899,-4.8957,-4.8947,-4.9011,-4.9036,-4.907,-4.9038,-4.892,-4.8905,-4.8892,-4.8856,-4.904,-4.904,-4.904,-4.904,-4.8861,-4.8854,-4.8947,-4.8999,-4.905,-4.9051,-4.9154,-4.9173,-4.9187,-4.9201,-4.9174,-4.9128,-4.9114,-4.9107,-4.9089,-4.9055,-4.9286,-4.9286,-4.9286,-4.8975,-4.8972,-4.9062,-4.9076,-4.9118,-4.9154,-4.925,-4.931,-4.9316,-4.9296,-4.9211,-4.9201,-4.9126,-4.9103,-4.9078,-4.905,-4.8989,0,0]},{"header":{"parameterUnit":"m.s-1","parameterCategory":1,"la1":30.2992,"la2":30.254,"lo1":-89.0895,"lo2":-89.0443,"dy":0.0025,"dx":0.0025,"nx":19,"ny":19,"refTime":"2026-05-17T09:00:00:Z","depth":0,"parameterNumber":3,"parameterNumberName":"V-component_of_WINDS"},"data":[0,0,0,3.2611,3.2613,3.2695,3.2695,3.28,3.28,0,0,0,0,0,0,0,0,0,0,0,3.2587,3.2588,3.2611,3.2613,3.2695,3.2695,3.2799,3.28,0,0,0,0,0,0,0,0,0,0,0,3.2587,3.2587,3.2588,3.2613,3.2695,3.2695,3.2799,3.2737,0,0,0,0,0,0,0,0,0,0,3.2658,3.2636,3.2587,3.2588,3.2614,3.2695,3.2695,3.2734,3.2741,3.2762,0,3.2782,0,3.2793,3.2807,3.2808,0,0,0,3.2613,3.263,3.2652,3.2589,3.2615,3.2694,3.2658,3.2738,3.2746,3.2772,3.2783,3.2787,3.2795,3.2808,3.2809,3.2934,3.2935,0,0,3.2608,3.2601,3.2647,3.2657,3.2645,3.2655,3.266,3.2743,3.2755,3.2784,3.279,3.2796,3.2809,3.281,3.2934,3.2934,0,0,0,3.2595,3.2598,3.2618,3.2653,3.2668,3.2657,3.2663,3.2751,3.2758,3.2791,3.2798,3.2809,3.2811,3.2933,3.2934,3.2958,0,0,0,3.2593,3.2591,3.2616,3.2613,3.2666,3.2711,3.267,3.2753,3.2762,3.2797,3.2809,3.2812,3.2932,3.2933,3.2955,3.2969,0,0,0,3.2582,3.259,3.2602,3.2613,3.2648,3.2709,3.2721,3.2755,3.2766,3.2808,3.2812,3.2932,3.2933,3.2954,3.2966,3.3001,0,0,0,3.2567,3.262,3.2602,3.2664,3.2647,3.2724,3.2721,3.2778,3.2816,3.281,3.2932,3.2934,3.2953,3.2965,3.2999,3.3029,3.304,0,0,3.2631,3.2628,3.2665,3.2651,3.2729,3.2712,3.2794,3.2834,3.2844,3.2904,3.2907,3.2956,3.2966,3.3001,3.311,3.3119,0,0,0,3.2683,3.2709,3.2732,3.2768,3.2802,3.2832,3.2861,3.2877,3.2928,3.2873,3.2978,3.2984,3.3005,3.3019,3.3027,3.3045,3.294,3.294,3.294,3.2762,3.2772,3.2835,3.2856,3.2891,3.2922,3.2952,3.2978,3.2977,3.3002,3.302,3.3085,3.3101,3.3107,3.3126,3.3037,3.3037,3.3037,3.3037,3.2855,3.2894,3.2894,3.2954,3.2965,3.3016,3.3048,3.3046,3.3095,3.3072,3.309,3.3064,3.3117,3.3134,3.3039,3.3038,3.3038,3.3038,3.3038,3.2908,3.2928,3.2947,3.3003,3.3044,3.3064,3.3111,3.3119,3.3127,3.3146,3.3165,3.3165,3.3166,3.3155,3.3155,3.3155,3.3155,3.3156,3.3156,3.2954,3.2975,3.3014,3.3056,3.3081,3.3116,3.3148,3.3174,3.3204,3.3206,3.3206,3.3203,3.3121,3.31,3.3159,3.3159,3.3158,3.3158,3.3158,3.3045,3.3026,3.3086,3.3112,3.3162,3.3203,3.3214,3.3265,3.3287,3.331,3.3305,3.3242,3.3239,3.3233,3.3216,3.3302,3.3302,3.3302,3.3302,3.3089,3.3089,3.3153,3.3194,3.3235,3.3251,3.332,3.3347,3.3371,3.3385,3.3374,3.3352,3.3345,3.3347,3.3338,3.3322,3.3433,3.3433,3.3433,3.3145,3.315,3.3206,3.3231,3.3271,3.3305,3.337,3.3417,3.3441,3.3439,3.3397,3.3391,3.3356,3.3344,3.334,3.3326,3.3297,0,0]}]]